User: anonymous   Login
Location: New Canada
(47.1017°N, 68.5042°W)
Time: 23:13:41
(UTC+00:00)
Language:

BEESAT - Orbit

View from above orbital plane
View from above orbital plane
View from above satellite
View from above satellite

Ground track
Ground track

The orbit data is extracted from the following two-line orbital elements,

1 35933U 09051C   24151.60936656  .00001528  00000-0  33737-3 0  9994
2 35933  98.4664  35.5007 0006377  36.3995 323.7636 14.58774809780064
Epoch (UTC): 30 May 2024 14:37:29
Eccentricity: 0.0006377
inclination: 98.4664°
perigee height: 692 km
apogee height: 701 km
right ascension of ascending node: 35.5007°
argument of perigee: 36.3995°
revolutions per day: 14.58774809
mean anomaly at epoch: 323.7636°
orbit number at epoch: 78006

The dashed part of the orbit path shows where the satellite is in the earth's shadow,  

DLR